Location: Celina Division
(33.3022°N, 96.7580°W)
Time: 14:14:50
(UTC+00:00)

Cosmos 1538 Rocket - Pass Details

Date: 08 December 2021
Orbit: 753 x 791 km, 74.0° (Epoch: 29 January)

Event Time Altitude Azimuth Distance (km) Brightness Sun altitude
Rises 12:33:47 0° 343° (NNW) 3,229 6.9 -9.4°
Reaches altitude 10° 12:36:10 10° 343° (NNW) 2,295 6.1 -8.9°
Maximum altitude 12:41:23 88° 256° (WSW) 760 4.0 -7.9°
Drops below altitude 10° 12:46:32 10° 165° (SSE) 2,267 7.0 -6.9°
Sets 12:48:52 0° 165° (SSE) 3,187 7.8 -6.5°
